Вернуться в каталог

STARLINK-31959

АктивенСвязьVLEO
NORAD 59925·PAYLOAD·🇺🇸 United States

Запущен Jun 1, 2024 с Cape Canaveral Space Force Station

Loading…

Ближайшие Пролёты (ближайшие 24 часа)

TLE

СвежийSource: CelesTrak SupGP

Эпоха: Sep 15, 2026, 02:11 UTC

1 59925C 24106D   26258.09145833  .00042346  00000+0  15338-2 0  2587
2 59925  43.0035 339.0425 0001849 269.6883  60.2668 15.27556731    18

Отслеживайте STARLINK-31959 в реальном времени с AllMySat

Download on the App Store